TimeEST,TemperatureF,Dew PointF,Humidity,Sea Level PressureIn,VisibilityMPH,Wind Direction,Wind SpeedMPH,Gust SpeedMPH,PrecipitationIn,Events,Conditions,WindDirDegrees,DateUTC
12:53 AM,33.1,26.1,75,30.35,10.0,Calm,Calm,-,N/A,,Clear,0,2013-02-02 05:53:00
1:53 AM,30.9,25.0,79,30.35,10.0,Calm,Calm,-,N/A,,Clear,0,2013-02-02 06:53:00
2:53 AM,30.0,24.1,79,30.35,10.0,Calm,Calm,-,N/A,,Clear,0,2013-02-02 07:53:00
3:53 AM,28.4,24.8,86,30.36,10.0,Calm,Calm,-,N/A,,Clear,0,2013-02-02 08:53:00
4:53 AM,28.9,23.0,78,30.35,10.0,Calm,Calm,-,N/A,,Clear,0,2013-02-02 09:53:00
5:53 AM,39.0,15.1,38,30.36,10.0,ENE,8.1,-,N/A,,Clear,70,2013-02-02 10:53:00
6:53 AM,37.0,14.0,39,30.37,10.0,ENE,5.8,-,N/A,,Clear,70,2013-02-02 11:53:00
7:53 AM,37.0,15.1,41,30.38,10.0,East,5.8,-,N/A,,Clear,80,2013-02-02 12:53:00
8:53 AM,41.0,12.0,31,30.38,10.0,East,5.8,-,N/A,,Clear,80,2013-02-02 13:53:00
9:53 AM,46.0,9.0,22,30.39,10.0,East,6.9,-,N/A,,Clear,90,2013-02-02 14:53:00
10:53 AM,50.0,10.0,20,30.38,10.0,ESE,4.6,-,N/A,,Clear,120,2013-02-02 15:53:00
11:53 AM,54.0,12.0,19,30.35,10.0,Calm,Calm,-,N/A,,Clear,0,2013-02-02 16:53:00
12:53 PM,57.0,12.9,18,30.30,10.0,Calm,Calm,-,N/A,,Clear,0,2013-02-02 17:53:00
1:53 PM,59.0,14.0,17,30.26,10.0,Calm,Calm,-,N/A,,Partly Cloudy,0,2013-02-02 18:53:00
2:53 PM,63.0,17.1,17,30.23,10.0,Calm,Calm,-,N/A,,Partly Cloudy,0,2013-02-02 19:53:00
3:53 PM,64.9,19.0,17,30.21,10.0,SW,6.9,-,N/A,,Partly Cloudy,220,2013-02-02 20:53:00
4:53 PM,64.0,19.9,18,30.21,10.0,WSW,3.5,-,N/A,,Clear,250,2013-02-02 21:53:00
5:53 PM,62.1,24.1,23,30.19,10.0,South,5.8,-,N/A,,Clear,190,2013-02-02 22:53:00
6:53 PM,53.1,30.0,41,30.20,10.0,South,4.6,-,N/A,,Clear,180,2013-02-02 23:53:00
7:53 PM,50.0,30.9,48,30.22,10.0,Calm,Calm,-,N/A,,Clear,0,2013-02-03 00:53:00
8:53 PM,45.0,32.0,60,30.21,10.0,Calm,Calm,-,N/A,,Clear,0,2013-02-03 01:53:00
9:53 PM,41.0,32.0,70,30.21,10.0,Calm,Calm,-,N/A,,Clear,0,2013-02-03 02:53:00
10:53 PM,39.0,30.9,73,30.21,10.0,Calm,Calm,-,N/A,,Clear,0,2013-02-03 03:53:00
11:53 PM,39.0,32.0,76,30.19,10.0,SE,3.5,-,N/A,,Clear,140,2013-02-03 04:53:00